Home > Weather > Darwin > Past weeks

Flag for Australia Weather for the Past 2 Weeks in Darwin, Northern Territory, Australia

Now
77 °F

Clear.


Feels Like: 78 °F
Forecast: 78 / 90 °F
Wind: 7 mph from Southeast

Location: Darwin Airport

Current Time: May 5, 2016 at 5:42:18 AM

Latest Report: May 5, 2016 at 4:00 AM


Visibility: N/A

Pressure: 29.86 "Hg

Humidity: 94%

Dew Point: 75 °F

Location of DarwinLocation

Historic Weather in Darwin — Graph

°F

Darwin Temperature Yesterday

Maximum temperature yesterday: 90 °F (at 2:00 PM)
Minimum temperature yesterday: 77 °F (at 6:00 AM)
Average temperature yesterday: 82 °F

High & Low Weather Summary for the Past Weeks

 TemperatureHumidityPressure
High97 °F (Apr 22, 3:30 PM)100% (May 1, 5:00 AM)29.95 "Hg (May 1, 5:00 AM)
Low75 °F (Apr 24, 5:30 AM)23% (Apr 25, 3:30 PM)29.74 "Hg (Apr 27, 3:30 PM)
Average84 °F72%29.85 "Hg
* Reported Apr 20 3:30 AM — May 5 3:30 AM, Darwin, Weather by CustomWeather, © 2016

Note: Actual official high and low records may vary slightly from our data, if they occured in-between our weather recording intervals... More about our weather records

Advertising

Darwin Weather History for the Previous 24 Hours

Scroll right to see more
 ConditionsComfort  
Time TempWeatherWind HumidityBarometerVisibility
3:30 AM
Thu, May 5
77 °FClear.7 mph94%29.86 "HgN/A
3:00 AM77 °FClear.9 mph94%29.86 "HgN/A
2:30 AM79 °FClear.8 mph94%29.86 "HgN/A
2:00 AM79 °FClear.7 mph94%29.86 "Hg10 mi
1:30 AM79 °FClear.6 mph94%29.86 "Hg10 mi
1:00 AM81 °FClear.6 mph89%29.86 "Hg10 mi
12:30 AM81 °FClear.5 mph89%29.86 "Hg10 mi
12:00 AM81 °FClear.No wind94%29.89 "Hg10 mi
11:30 PM
Wed, May 4
81 °FClear.2 mph89%29.89 "Hg10 mi
11:00 PM81 °FClear.5 mph89%29.89 "Hg10 mi
10:30 PM82 °FClear.7 mph84%29.89 "Hg10 mi
10:00 PM82 °FClear.8 mph84%29.89 "Hg10 mi
9:30 PM82 °FClear.7 mph84%29.89 "Hg10 mi
8:30 PM82 °FClear.7 mph89%29.89 "Hg10 mi
8:00 PM82 °FPartly cloudy.8 mph89%29.86 "HgN/A
7:30 PM82 °FPartly cloudy.8 mph89%29.83 "HgN/A
6:30 PM81 °FBroken clouds.3 mph89%29.83 "HgN/A
5:30 PM82 °FScattered showers. Broken clouds.7 mph79%29.80 "HgN/A
4:30 PM82 °FScattered showers. Broken clouds.8 mph79%29.80 "HgN/A
3:30 PM84 °FBroken clouds.2 mph79%29.80 "HgN/A
3:00 PM81 °FSprinkles. Partly sunny.14 mph89%29.80 "HgN/A
2:30 PM90 °FSprinkles. Partly sunny.14 mph59%29.80 "HgN/A
2:00 PM90 °FScattered showers. Partly sunny.12 mph63%29.80 "HgN/A
1:30 PM86 °FScattered showers. Partly sunny.14 mph70%29.83 "HgN/A
12:30 PM88 °FScattered showers. Scattered clouds.12 mph62%29.83 "HgN/A
12:00 PM88 °FScattered clouds.15 mph66%29.86 "HgN/A
11:30 AM86 °FPartly sunny.14 mph70%29.89 "HgN/A
11:00 AM86 °FScattered clouds.15 mph70%29.89 "HgN/A
10:30 AM86 °FScattered clouds.14 mph75%29.89 "HgN/A
10:00 AM86 °FScattered clouds.15 mph75%29.89 "HgN/A
9:30 AM86 °FScattered clouds.13 mph75%29.92 "HgN/A
9:00 AM82 °FPartly sunny.10 mph84%29.92 "HgN/A
8:30 AM82 °FPartly sunny.9 mph79%29.89 "HgN/A
8:00 AM79 °FPartly sunny.8 mph89%29.89 "HgN/A
7:30 AM77 °FSunny.9 mph94%29.86 "Hg10 mi
6:30 AM77 °FClear.8 mph94%29.86 "Hg10 mi
6:00 AM77 °FClear.6 mph94%29.83 "Hg10 mi
5:30 AM79 °FClear.8 mph89%29.83 "Hg10 mi
5:00 AM79 °FClear.7 mph89%29.83 "HgN/A
Weather by CustomWeather, © 2016

See weather overviewHow to use our weather pages